Location: Del Oro Observatory
(38.3044°N, 104.8119°W)
Time: 05:53:17
(UTC-07:00)

Iridium 35 - Visible Passes

Search period start: 20 December 2014 00:00
Search period end: 30 December 2014 00:00
Orbit: 776 x 779 km, 86.4° (Epoch: 19 December)

Date Brightness Start Highest point End Pass type
(mag) Time Alt. Az. Time Alt. Az. Time Alt. Az.
20 Dec 7.7 03:53:42 11° SSE 03:53:42 11° SSE 03:53:54 10° SSE visible
21 Dec 7.7 17:47:58 10° WSW 17:51:38 19° WNW 17:55:20 10° NNW visible
22 Dec 6.8 17:13:09 10° SSW 17:17:53 35° W 17:22:38 10° NNW visible
24 Dec 7.9 17:49:33 10° WSW 17:51:55 13° WNW 17:54:19 10° NW visible
25 Dec 7.4 17:13:53 10° SW 17:18:04 24° W 17:22:17 10° NNW visible
28 Dec 7.7 17:15:00 10° WSW 17:18:19 17° WNW 17:21:39 10° NW visible
